Total_Precipitation_Accumulation
1.85 2.31 2.82 3.29 4.01 4.99 6.02 6.49 6.37 5.81 5.36 5.01 4.73 4.48 4.10 3.77 3.63 3.33 3.02 2.99 2.98 3.02 3.34 3.06 3.51 3.54 3.65 3.68 3.65 3.84 3.80 3.66 3.90 4.49 4.50 3.98 3.55 3.48 3.30 3.16 3.28 3.08 3.06
1.92 2.42 2.99 3.37 3.72 4.31 5.14 5.56 5.29 4.74 4.15 3.99 3.94 3.91 3.81 3.38 3.15 3.09 3.10 2.76 2.81 2.95 3.07 3.29 3.20 3.30 3.52 3.41 3.37 3.72 3.70 3.34 3.54 4.20 4.55 4.36 4.31 3.90 3.13 3.14 3.25 3.20 3.28
1.70 2.43 2.98 3.26 3.53 3.81 3.90 4.06 4.02 3.60 3.34 3.30 3.30 3.34 3.54 3.32 3.03 2.95 2.90 2.65 2.57 2.62 2.85 2.95 3.11 3.31 3.17 3.29 3.42 3.51 3.64 3.56 3.49 3.64 4.30 4.28 4.12 3.96 3.59 3.17 3.06 3.22 3.45
1.55 2.29 2.62 2.75 2.80 2.89 2.80 2.92 3.03 2.99 3.01 2.97 3.03 2.90 2.78 2.80 2.69 2.69 2.65 2.64 2.51 2.43 2.38 2.57 2.90 3.08 3.02 3.29 3.04 3.22 3.59 3.72 3.50 3.53 3.62 3.64 3.77 3.95 3.76 3.32 2.95 2.96 3.00
1.26 1.58 1.72 1.87 1.94 2.00 2.06 2.33 2.72 2.90 2.85 2.81 3.01 3.02 2.66 2.52 2.45 2.47 2.67 2.65 2.50 2.36 2.24 2.37 2.65 2.87 2.97 3.09 3.13 3.48 3.45 3.39 3.39 3.40 3.51 3.63 3.58 3.40 3.46 3.49 3.17 2.93 2.69
0.93 1.12 1.23 1.35 1.43 1.48 1.61 1.88 2.33 2.61 2.60 2.64 2.70 2.65 2.61 2.59 2.55 2.52 2.57 2.48 2.38 2.46 2.55 2.51 2.63 2.66 2.79 2.97 3.10 3.29 3.30 3.28 3.33 3.23 3.18 3.46 3.61 3.58 3.63 3.47 3.17 2.96 2.63
0.84 0.98 1.18 1.29 1.25 1.20 1.32 1.51 1.84 2.03 2.08 2.20 2.37 2.48 2.56 2.55 2.38 2.33 2.31 2.23 2.02 2.15 2.44 2.62 2.72 2.76 2.84 2.88 3.04 3.04 3.04 3.12 3.26 3.18 3.06 3.06 3.14 3.38 3.61 3.63 3.21 2.95 2.63
0.74 0.83 0.98 1.03 1.03 1.09 1.17 1.31 1.47 1.58 1.70 1.80 2.01 2.20 2.26 2.25 2.20 2.37 2.24 2.08 1.84 1.77 2.01 2.31 2.45 2.50 2.53 2.59 3.12 2.88 2.82 2.99 3.07 2.98 3.28 3.11 2.89 3.13 3.35 3.53 3.61 3.37 3.17
0.63 0.67 0.78 0.85 0.88 1.03 1.12 1.16 1.28 1.40 1.53 1.63 1.91 2.08 2.10 2.07 2.11 2.22 2.12 1.91 1.90 1.78 1.86 1.94 2.27 2.43 2.45 2.58 2.88 2.81 2.75 2.93 2.90 3.02 3.27 3.23 3.03 3.03 3.04 3.33 3.73 3.99 3.78
0.56 0.63 0.68 0.77 0.76 0.79 0.93 1.06 1.15 1.34 1.54 1.63 1.70 1.72 1.89 1.88 1.88 1.83 1.78 1.85 1.87 1.82 1.90 2.02 2.06 2.21 2.40 2.58 2.79 2.68 2.65 2.78 2.85 3.04 3.18 3.13 3.00 3.04 2.94 3.08 3.45 3.80 3.90
0.65 0.64 0.71 0.73 0.70 0.69 0.85 1.01 1.13 1.28 1.37 1.38 1.42 1.53 1.63 1.63 1.61 1.61 1.58 1.69 1.74 1.79 1.83 1.92 2.04 2.09 2.23 2.54 2.88 2.79 2.83 2.86 2.86 2.85 3.01 3.06 3.20 3.23 3.09 3.07 3.15 3.36 3.63
0.83 0.81 0.85 0.82 0.81 0.82 0.87 1.00 1.04 1.10 1.14 1.18 1.25 1.34 1.48 1.52 1.53 1.56 1.67 1.78 1.81 1.81 1.76 1.87 1.97 1.93 2.07 2.37 2.68 2.81 2.95 3.07 3.02 3.04 3.20 3.21 3.22 3.18 3.07 3.10 3.10 3.16 3.47
0.86 1.03 1.07 0.94 0.88 0.87 0.92 0.97 0.98 1.01 1.04 1.10 1.15 1.23 1.38 1.56 1.66 1.71 1.76 1.90 1.99 1.97 1.94 1.96 1.93 2.08 2.24 2.32 2.48 2.65 2.70 2.82 2.91 3.07 3.11 3.05 3.18 3.09 3.08 2.95 2.92 2.98 3.15
0.88 1.05 1.19 0.99 0.87 0.82 0.85 0.90 0.90 0.87 0.91 1.09 1.25 1.34 1.55 1.76 1.85 1.88 1.94 1.98 2.03 2.02 2.05 2.07 2.09 2.22 2.31 2.28 2.33 2.47 2.57 2.63 2.70 2.86 2.95 2.99 3.01 3.05 3.21 3.07 3.05 3.20 3.34
0.88 0.93 1.04 1.04 0.94 0.88 0.87 0.91 1.00 1.05 1.08 1.29 1.49 1.69 1.88 1.94 1.99 2.05 2.07 2.13 2.16 2.06 2.17 2.23 2.22 2.24 2.16 2.04 2.30 2.42 2.40 2.60 2.64 2.64 2.62 2.70 2.92 2.98 3.02 2.83 3.02 3.24 3.26
0.93 1.05 1.10 1.09 1.12 1.08 1.08 1.15 1.22 1.33 1.49 1.70 1.85 1.93 2.01 2.05 2.00 2.02 2.04 2.19 2.24 2.29 2.41 2.43 2.46 2.39 2.09 2.26 2.28 2.28 2.42 2.56 2.56 2.56 2.48 2.37 2.37 2.46 2.59 2.62 2.67 2.82 2.96
1.11 1.21 1.26 1.25 1.30 1.30 1.38 1.52 1.51 1.59 1.77 1.95 2.14 2.15 2.14 2.14 2.09 2.13 2.15 2.14 2.27 2.40 2.45 2.45 2.48 2.44 2.43 2.37 2.05 1.98 2.02 2.12 2.16 2.16 2.16 1.93 1.84 2.20 2.23 2.40 2.37 2.27 2.32
1.11 1.23 1.32 1.33 1.28 1.34 1.46 1.70 1.81 1.81 1.96 2.10 2.22 2.30 2.36 2.42 2.48 2.55 2.53 2.57 2.63 2.68 2.63 2.58 2.61 2.66 2.60 2.56 2.17 2.05 1.93 1.95 1.93 1.92 1.89 1.93 1.94 1.97 2.16 2.23 2.19 2.08 2.04
1.21 1.36 1.37 1.33 1.35 1.56 1.66 1.73 1.83 1.86 2.03 2.24 2.40 2.49 2.56 2.62 2.66 2.68 2.80 2.96 3.11 3.18 3.10 3.06 3.10 3.07 3.10 3.08 2.65 2.47 2.22 2.12 2.01 2.02 2.07 2.10 1.94 2.01 2.04 2.09 2.07 2.01 2.00
1.33 1.48 1.53 1.49 1.58 1.87 1.95 2.04 2.11 2.17 2.25 2.36 2.53 2.74 2.89 2.97 2.94 3.01 3.22 3.41 3.58 3.62 3.64 3.66 3.65 3.55 3.51 3.45 2.99 2.79 2.51 2.45 2.37 2.40 2.25 2.13 1.94 1.88 1.83 1.84 1.89 1.82 1.80
1.31 1.46 1.54 1.56 1.63 1.86 2.06 2.35 2.48 2.54 2.56 2.60 2.72 2.89 3.06 3.20 3.25 3.38 3.49 3.69 3.85 3.84 3.79 3.74 3.70 3.56 3.46 3.34 2.98 2.78 2.55 2.56 2.59 2.48 2.36 2.18 2.00 1.78 1.72 1.68 1.68 1.75 1.86
1.39 1.46 1.60 1.69 1.77 1.89 2.14 2.42 2.63 2.78 2.85 2.84 3.00 3.10 3.17 3.03 3.00 3.31 3.54 3.79 4.02 3.98 3.90 3.92 3.76 3.59 3.46 3.17 2.93 2.73 2.56 2.62 2.66 2.59 2.47 2.30 2.14 1.87 1.77 1.61 1.60 1.72 1.71
1.44 1.45 1.52 1.65 1.73 1.81 2.03 2.44 2.60 2.71 2.82 2.91 2.97 3.11 3.15 3.14 3.22 3.45 3.65 3.88 4.01 3.96 3.85 3.81 3.69 3.48 3.27 3.10 2.84 2.59 2.48 2.52 2.46 2.55 2.67 2.45 2.26 2.04 1.87 1.84 1.83 1.72 1.62
1.41 1.49 1.57 1.70 1.78 1.71 1.86 2.06 2.27 2.43 2.53 2.59 2.61 2.62 2.74 2.91 3.17 3.50 3.59 3.67 3.71 3.75 3.73 3.62 3.46 3.40 3.36 3.27 2.97 2.62 2.36 2.33 2.36 2.42 2.52 2.41 2.24 2.02 1.87 1.90 1.85 1.72 1.70
1.35 1.43 1.61 1.63 1.68 1.75 1.76 1.81 1.87 2.06 2.24 2.29 2.30 2.39 2.51 2.72 2.95 3.18 3.32 3.28 3.31 3.52 3.42 3.18 3.00 2.90 2.83 2.90 2.78 2.46 2.28 2.23 2.31 2.39 2.44 2.39 2.27 2.10 1.97 1.90 1.94 1.95 1.90
1.43 1.44 1.53 1.55 1.57 1.70 1.78 1.76 1.87 2.04 2.10 2.04 2.04 2.08 2.15 2.35 2.53 2.68 2.79 2.83 2.61 2.67 2.59 2.42 2.28 2.16 2.14 2.13 1.97 1.79 1.74 1.82 2.01 2.10 2.27 2.32 2.24 2.14 2.08 2.05 2.04 2.03 1.96